Tracking 29892 objects as of 21-Nov-2024
HD Live streaming from Space Station
objects crossing your sky now

SL-16 DEB

Track SL-16 DEB now!
10-day predictions


NORAD ID: 22480
Int'l Code: 1992-093FV
Perigee: 574.4 km
Apogee: 615.0 km
Inclination: 71.1 °
Period: 96.4 minutes
Semi major axis: 6965 km
RCS: 0.037 m2 (small)
Launch date: December 25, 1992
Source: Commonwealth of Independent States (former USSR) (CIS)
Launch site: TYURATAM MISSILE AND SPACE COMPLEX (TTMTR)

Note: This is SATELLITE DEBRIS
Your satellite tracking list
Your tracking list is empty




NASA's NSSDC Master Catalog

Two Line Element Set (TLE):
1 22480U 92093FV  24324.84160642  .00108770  00000-0  10130-1 0  9994
2 22480  71.0936 111.0972 0029104 183.8995 337.7409 14.93330880652201
Source of the keplerian elements: AFSPC